| time (UTC) | temp F | wind direction | speed MPH | gust MPH | rain 1hr in | rain 24hr in | rain mn in | humidity % | barometer mb |
| 20260831063615 | 65 | 217 | 10.0 | 9.0 | 0.00 | 0.00 | 0.00 | 73 | |
| 20260831063149 | 65 | 205 | 12.0 | 14.0 | 0.00 | 0.00 | 0.00 | 73 | |
| 20260831063114 | 65 | 205 | 12.0 | 14.0 | 0.00 | 0.00 | 0.00 | 73 | |
| 20260831062714 | 65 | 207 | 11.0 | 14.0 | 0.00 | 0.00 | 0.00 | 72 | |
| 20260831062616 | 65 | 207 | 11.0 | 14.0 | 0.00 | 0.00 | 0.00 | 72 | |
| 20260831062118 | 65 | 194 | 13.0 | 14.0 | 0.00 | 0.00 | 0.00 | 70 | |
| 20260831061621 | 65 | 194 | 12.0 | 12.0 | 0.00 | 0.00 | 0.00 | 67 | |
| 20260831061123 | 66 | 240 | 12.0 | 7.0 | 0.00 | 0.00 | 0.00 | 64 | |
| 20260831060625 | 66 | 240 | 13.0 | 8.0 | 0.00 | 0.00 | 0.00 | 60 | |
| 20260831060125 | 66 | 217 | 11.0 | 14.0 | 0.00 | 0.00 | 0.00 | 57 | |
| 20260831055627 | 67 | 214 | 11.0 | 9.0 | 0.00 | 0.00 | 0.00 | 53 | |
| 20260831055129 | 67 | 200 | 11.0 | 14.0 | 0.00 | 0.00 | 0.00 | 48 | |
| 20260831054631 | 68 | 207 | 10.0 | 9.0 | 0.00 | 0.00 | 0.00 | 45 | |
| 20260831054133 | 69 | 212 | 12.0 | 16.0 | 0.00 | 0.00 | 0.00 | 40 | |
| 20260831053636 | 70 | 208 | 11.0 | 12.0 | 0.00 | 0.00 | 0.00 | 35 | |
| 20260831053135 | 70 | 228 | 11.0 | 12.0 | 0.00 | 0.00 | 0.00 | 30 | |
| 20260831052637 | 71 | 194 | 10.0 | 9.0 | 0.00 | 0.00 | 0.00 | 24 | |
| 20260831052140 | 71 | 156 | 12.0 | 10.0 | 0.00 | 0.00 | 0.00 | 23 | |
| 20260831051642 | 71 | 174 | 15.0 | 12.0 | 0.00 | 0.00 | 0.00 | 23 | |
| 20260831051144 | 72 | 155 | 14.0 | 18.0 | 0.00 | 0.00 | 0.00 | 22 | |
| 20260831050145 | 72 | 195 | 14.0 | 14.0 | 0.00 | 0.00 | 0.00 | 21 | |
| 20260831045648 | 72 | 177 | 13.0 | 11.0 | 0.00 | 0.00 | 0.00 | 21 | |
| 20260831044652 | 71 | 177 | 16.0 | 17.0 | 0.00 | 0.00 | 0.00 | 22 | |
| 20260831044154 | 71 | 183 | 17.0 | 20.0 | 0.00 | 0.00 | 0.00 | 23 | |
| 20260831043657 | 71 | 186 | 19.0 | 17.0 | 0.00 | 0.00 | 0.00 | 24 | |
| 20260831043156 | 71 | 159 | 17.0 | 19.0 | 0.00 | 0.00 | 0.00 | 24 | |
| 20260831042200 | 71 | 176 | 18.0 | 18.0 | 0.00 | 0.00 | 0.00 | 24 | |
| 20260831041703 | 71 | 180 | 15.0 | 15.0 | 0.00 | 0.00 | 0.00 | 24 | |
| 20260831041205 | 71 | 172 | 16.0 | 19.0 | 0.00 | 0.00 | 0.00 | 25 | |
| 20260831040707 | 71 | 177 | 14.0 | 12.0 | 0.00 | 0.00 | 0.00 | 25 | |
| 20260831040206 | 72 | 159 | 14.0 | 15.0 | 0.00 | 0.00 | 0.00 | 24 | |
| 20260831035709 | 72 | 160 | 12.0 | 12.0 | 0.00 | 0.00 | 0.00 | 23 | |
| 20260831035211 | 73 | 174 | 12.0 | 11.0 | 0.00 | 0.00 | 0.00 | 22 | |
| 20260831034713 | 74 | 160 | 10.0 | 11.0 | 0.00 | 0.00 | 0.00 | 20 | |
| 20260831034215 | 74 | 156 | 7.0 | 7.0 | 0.00 | 0.00 | 0.00 | 17 | |
| 20260831033718 | 75 | 173 | 9.0 | 10.0 | 0.00 | 0.00 | 0.00 | 14 | |
| 20260831033217 | 75 | 195 | 9.0 | 9.0 | 0.00 | 0.00 | 0.00 | 14 | |
| 20260831032719 | 75 | 181 | 11.0 | 11.0 | 0.00 | 0.00 | 0.00 | 14 | |
| 20260831032221 | 76 | 190 | 13.0 | 14.0 | 0.00 | 0.00 | 0.00 | 14 | |
| 20260831031724 | 76 | 186 | 12.0 | 12.0 | 0.00 | 0.00 | 0.00 | 13 | |
| 20260831031226 | 76 | 176 | 13.0 | 15.0 | 0.00 | 0.00 | 0.00 | 13 | |
| 20260831030728 | 76 | 184 | 17.0 | 19.0 | 0.00 | 0.00 | 0.00 | 12 | |
| 20260831030227 | 76 | 197 | 12.0 | 11.0 | 0.00 | 0.00 | 0.00 | 12 | |
| 20260831025232 | 77 | 191 | 9.0 | 9.0 | 0.00 | 0.00 | 0.00 | 9 | |
| 20260831024734 | 77 | 191 | 11.0 | 13.0 | 0.00 | 0.00 | 0.00 | 8 | |
| 20260831023739 | 77 | 190 | 11.0 | 9.0 | 0.00 | 0.00 | 0.00 | 9 | |
| 20260831023238 | 77 | 204 | 11.0 | 8.0 | 0.00 | 0.00 | 0.00 | 8 | |
| 20260831022741 | 78 | 201 | 11.0 | 0.0 | 0.00 | 0.00 | 0.00 | 8 | |
| 20260831022243 | 78 | 207 | 16.0 | 0.0 | 0.00 | 0.00 | 0.00 | 7 | |
| 20260831021745 | 78 | 208 | 15.0 | 13.0 | 0.00 | 0.00 | 0.00 | 6 | |
| 20260831021247 | 79 | 204 | 10.0 | 13.0 | 0.00 | 0.00 | 0.00 | 6 | |
| 20260831020749 | 79 | 215 | 17.0 | 8.0 | 0.00 | 0.00 | 0.00 | 6 | |
| 20260831020248 | 79 | 214 | 16.0 | 16.0 | 0.00 | 0.00 | 0.00 | 6 | |
| 20260831015750 | 79 | 203 | 14.0 | 10.0 | 0.00 | 0.00 | 0.00 | 6 | |
| 20260831015253 | 80 | 183 | 16.0 | 12.0 | 0.00 | 0.00 | 0.00 | 6 | |
| 20260831014755 | 80 | 204 | 14.0 | 17.0 | 0.00 | 0.00 | 0.00 | 6 | |
| 20260831014257 | 80 | 197 | 15.0 | 17.0 | 0.00 | 0.00 | 0.00 | 6 | |
| 20260831013800 | 80 | 222 | 18.0 | 23.0 | 0.00 | 0.00 | 0.00 | 6 | |
| 20260831013259 | 80 | 198 | 18.0 | 20.0 | 0.00 | 0.00 | 0.00 | 6 | |
| 20260831012801 | 81 | 195 | 17.0 | 18.0 | 0.00 | 0.00 | 0.00 | 6 | |
| 20260831012305 | 81 | 203 | 16.0 | 17.0 | 0.00 | 0.00 | 0.00 | 6 | |
| 20260831011805 | 81 | 176 | 12.0 | 7.0 | 0.00 | 0.00 | 0.00 | 6 | |
| 20260831011308 | 81 | 204 | 14.0 | 18.0 | 0.00 | 0.00 | 0.00 | 7 | |
| 20260831010810 | 82 | 217 | 13.0 | 20.0 | 0.00 | 0.00 | 0.00 | 6 | |
| 20260831010309 | 82 | 212 | 18.0 | 18.0 | 0.00 | 0.00 | 0.00 | 6 | |
| 20260831005811 | 82 | 201 | 13.0 | 16.0 | 0.00 | 0.00 | 0.00 | 6 | |
| 20260831005314 | 82 | 190 | 15.0 | 12.0 | 0.00 | 0.00 | 0.00 | 7 | |
| 20260831004816 | 82 | 210 | 12.0 | 14.0 | 0.00 | 0.00 | 0.00 | 7 | |
| 20260831004415 | 82 | 198 | 15.0 | 19.0 | 0.00 | 0.00 | 0.00 | 8 | |
| 20260831004318 | 82 | 198 | 15.0 | 19.0 | 0.00 | 0.00 | 0.00 | 8 | |
| 20260831003820 | 82 | 176 | 15.0 | 13.0 | 0.00 | 0.00 | 0.00 | 8 | |
| 20260831003319 | 83 | 194 | 15.0 | 22.0 | 0.00 | 0.00 | 0.00 | 7 | |
| 20260831002822 | 82 | 180 | 19.0 | 14.0 | 0.00 | 0.00 | 0.00 | 7 | |
| 20260831002324 | 83 | 210 | 17.0 | 18.0 | 0.00 | 0.00 | 0.00 | 7 | |
| 20260831001826 | 83 | 169 | 19.0 | 16.0 | 0.00 | 0.00 | 0.00 | 7 | |
| 20260831001329 | 82 | 190 | 18.0 | 17.0 | 0.00 | 0.00 | 0.00 | 7 | |
| 20260831000831 | 83 | 181 | 20.0 | 19.0 | 0.00 | 0.00 | 0.00 | 7 | |
| 20260831000332 | 83 | 190 | 22.0 | 21.0 | 0.00 | 0.00 | 0.00 | 7 | |
| 20260830235832 | 83 | 197 | 21.0 | 21.0 | 0.00 | 0.00 | 0.00 | 7 | |
| 20260830235334 | 83 | 201 | 21.0 | 24.0 | 0.00 | 0.00 | 0.00 | 7 | |
| 20260830234339 | 83 | 203 | 19.0 | 17.0 | 0.00 | 0.00 | 0.00 | 6 | |
| 20260830233841 | 84 | 195 | 22.0 | 28.0 | 0.00 | 0.00 | 0.00 | 6 | |
| 20260830233340 | 84 | 169 | 16.0 | 22.0 | 0.00 | 0.00 | 0.00 | 6 | |
| 20260830232843 | 84 | 188 | 22.0 | 19.0 | 0.00 | 0.00 | 0.00 | 5 | |
| 20260830232345 | 84 | 191 | 18.0 | 15.0 | 0.00 | 0.00 | 0.00 | 5 | |
| 20260830231848 | 85 | 180 | 20.0 | 23.0 | 0.00 | 0.00 | 0.00 | 5 | |
| 20260830231349 | 85 | 191 | 18.0 | 21.0 | 0.00 | 0.00 | 0.00 | 5 | |
| 20260830230852 | 85 | 187 | 24.0 | 23.0 | 0.00 | 0.00 | 0.00 | 5 | |
| 20260830230351 | 85 | 177 | 16.0 | 16.0 | 0.00 | 0.00 | 0.00 | 4 | |
| 20260830225853 | 85 | 200 | 20.0 | 25.0 | 0.00 | 0.00 | 0.00 | 5 | |
| 20260830225355 | 85 | 190 | 20.0 | 18.0 | 0.00 | 0.00 | 0.00 | 5 | |
| 20260830224858 | 85 | 160 | 15.0 | 20.0 | 0.00 | 0.00 | 0.00 | 6 | |
| 20260830224453 | 85 | 207 | 15.0 | 11.0 | 0.00 | 0.00 | 0.00 | 5 | |
| 20260830224400 | 85 | 207 | 15.0 | 11.0 | 0.00 | 0.00 | 0.00 | 5 | |
| 20260830223902 | 85 | 173 | 18.0 | 18.0 | 0.00 | 0.00 | 0.00 | 6 | |
| 20260830223401 | 85 | 176 | 19.0 | 22.0 | 0.00 | 0.00 | 0.00 | 6 | |
| 20260830222903 | 85 | 200 | 16.0 | 19.0 | 0.00 | 0.00 | 0.00 | 6 | |
| 20260830222406 | 85 | 194 | 22.0 | 27.0 | 0.00 | 0.00 | 0.00 | 5 | |
| 20260830221908 | 85 | 180 | 19.0 | 20.0 | 0.00 | 0.00 | 0.00 | 6 | |
| 20260830220913 | 85 | 190 | 17.0 | 15.0 | 0.00 | 0.00 | 0.00 | 7 | |
| 20260830215914 | 85 | 194 | 24.0 | 28.0 | 0.00 | 0.00 | 0.00 | 7 | |
| 20260830215416 | 85 | 187 | 23.0 | 23.0 | 0.00 | 0.00 | 0.00 | 8 | |
| 20260830214918 | 85 | 194 | 19.0 | 21.0 | 0.00 | 0.00 | 0.00 | 6 | |
| 20260830214422 | 85 | 190 | 16.0 | 17.0 | 0.00 | 0.00 | 0.00 | 8 | |
| 20260830213923 | 85 | 172 | 22.0 | 24.0 | 0.00 | 0.00 | 0.00 | 6 | |
| 20260830213423 | 85 | 186 | 23.0 | 23.0 | 0.00 | 0.00 | 0.00 | 6 | |
| 20260830212924 | 85 | 187 | 22.0 | 31.0 | 0.00 | 0.00 | 0.00 | 8 | |
| 20260830212427 | 85 | 184 | 22.0 | 21.0 | 0.00 | 0.00 | 0.00 | 8 | |
| 20260830211431 | 85 | 170 | 17.0 | 14.0 | 0.00 | 0.00 | 0.00 | 6 | |
| 20260830210934 | 86 | 187 | 21.0 | 20.0 | 0.00 | 0.00 | 0.00 | 6 | |
| 20260830210433 | 86 | 219 | 17.0 | 13.0 | 0.00 | 0.00 | 0.00 | 6 | |
| 20260830205935 | 85 | 181 | 20.0 | 16.0 | 0.00 | 0.00 | 0.00 | 7 | |
| 20260830205437 | 86 | 170 | 18.0 | 18.0 | 0.00 | 0.00 | 0.00 | 7 | |
| 20260830204939 | 86 | 174 | 20.0 | 20.0 | 0.00 | 0.00 | 0.00 | 7 | |
| 20260830204442 | 86 | 184 | 22.0 | 12.0 | 0.00 | 0.00 | 0.00 | 6 | |
| 20260830203944 | 86 | 167 | 16.0 | 17.0 | 0.00 | 0.00 | 0.00 | 7 | |
| 20260830203443 | 86 | 188 | 12.0 | 24.0 | 0.00 | 0.00 | 0.00 | 7 | |
| 20260830202945 | 86 | 187 | 21.0 | 16.0 | 0.00 | 0.00 | 0.00 | 6 | |
| 20260830202448 | 86 | 190 | 18.0 | 25.0 | 0.00 | 0.00 | 0.00 | 6 | |
| 20260830201950 | 87 | 179 | 18.0 | 14.0 | 0.00 | 0.00 | 0.00 | 6 | |
| 20260830201452 | 87 | 207 | 15.0 | 15.0 | 0.00 | 0.00 | 0.00 | 5 | |
| 20260830200453 | 86 | 193 | 20.0 | 20.0 | 0.00 | 0.00 | 0.00 | 6 | |
| 20260830195956 | 86 | 190 | 18.0 | 14.0 | 0.00 | 0.00 | 0.00 | 6 | |
| 20260830195458 | 87 | 208 | 17.0 | 18.0 | 0.00 | 0.00 | 0.00 | 6 | |
| 20260830195000 | 87 | 207 | 13.0 | 9.0 | 0.00 | 0.00 | 0.00 | 6 | |
| 20260830194503 | 87 | 191 | 14.0 | 15.0 | 0.00 | 0.00 | 0.00 | 6 | |
| 20260830194005 | 87 | 194 | 13.0 | 13.0 | 0.00 | 0.00 | 0.00 | 6 | |
| 20260830193504 | 88 | 201 | 9.0 | 13.0 | 0.00 | 0.00 | 0.00 | 6 | |
| 20260830193006 | 88 | 219 | 13.0 | 13.0 | 0.00 | 0.00 | 0.00 | 6 | |
| 20260830192011 | 88 | 195 | 12.0 | 13.0 | 0.00 | 0.00 | 0.00 | 6 | |
| 20260830191609 | 88 | 215 | 10.0 | 9.0 | 0.00 | 0.00 | 0.00 | 6 | |
| 20260830191513 | 88 | 215 | 10.0 | 9.0 | 0.00 | 0.00 | 0.00 | 6 | |
| 20260830191015 | 88 | 245 | 7.0 | 10.0 | 0.00 | 0.00 | 0.00 | 6 | |
| 20260830190514 | 88 | 203 | 13.0 | 10.0 | 0.00 | 0.00 | 0.00 | 6 | |
| 20260830190017 | 87 | 222 | 7.0 | 8.0 | 0.00 | 0.00 | 0.00 | 5 | |
| 20260830185519 | 87 | 238 | 10.0 | 18.0 | 0.00 | 0.00 | 0.00 | 7 | |
| 20260830185021 | 87 | 219 | 11.0 | 12.0 | 0.00 | 0.00 | 0.00 | 7 | |
| 20260830184524 | 87 | 205 | 8.0 | 7.0 | 0.00 | 0.00 | 0.00 | 7 | |
| 20260830184026 | 86 | 233 | 10.0 | 10.0 | 0.00 | 0.00 | 0.00 | 8 | |
| 20260830183526 | 86 | 198 | 11.0 | 7.0 | 0.00 | 0.00 | 0.00 | 8 | |
| 20260830183027 | 86 | 238 | 10.0 | 11.0 | 0.00 | 0.00 | 0.00 | 8 | |
| 20260830182530 | 86 | 229 | 11.0 | 13.0 | 0.00 | 0.00 | 0.00 | 8 | |
| 20260830182032 | 86 | 248 | 10.0 | 11.0 | 0.00 | 0.00 | 0.00 | 9 | |
| 20260830181534 | 85 | 222 | 9.0 | 14.0 | 0.00 | 0.00 | 0.00 | 7 | |
| 20260830181037 | 85 | 253 | 11.0 | 9.0 | 0.00 | 0.00 | 0.00 | 9 | |
| 20260830180536 | 85 | 249 | 10.0 | 15.0 | 0.00 | 0.00 | 0.00 | 10 | |
| 20260830180038 | 84 | 232 | 10.0 | 12.0 | 0.00 | 0.00 | 0.00 | 10 | |
| 20260830175540 | 84 | 228 | 12.0 | 15.0 | 0.00 | 0.00 | 0.00 | 10 | |
| 20260830175043 | 84 | 243 | 11.0 | 13.0 | 0.00 | 0.00 | 0.00 | 11 | |
| 20260830174545 | 84 | 233 | 12.0 | 14.0 | 0.00 | 0.00 | 0.00 | 11 | |
| 20260830174047 | 83 | 232 | 14.0 | 13.0 | 0.00 | 0.00 | 0.00 | 11 | |
| 20260830173546 | 83 | 211 | 11.0 | 11.0 | 0.00 | 0.00 | 0.00 | 11 | |
| 20260830173049 | 83 | 232 | 11.0 | 13.0 | 0.00 | 0.00 | 0.00 | 12 | |
| 20260830172551 | 83 | 222 | 11.0 | 12.0 | 0.00 | 0.00 | 0.00 | 12 | |
| 20260830172053 | 82 | 231 | 11.0 | 16.0 | 0.00 | 0.00 | 0.00 | 12 | |
| 20260830171556 | 82 | 214 | 9.0 | 10.0 | 0.00 | 0.00 | 0.00 | 13 | |
| 20260830171058 | 81 | 240 | 11.0 | 11.0 | 0.00 | 0.00 | 0.00 | 13 | |
| 20260830170557 | 81 | 221 | 14.0 | 14.0 | 0.00 | 0.00 | 0.00 | 14 | |
| 20260830170059 | 80 | 222 | 10.0 | 5.0 | 0.00 | 0.00 | 0.00 | 15 | |
| 20260830165602 | 80 | 221 | 11.0 | 8.0 | 0.00 | 0.00 | 0.00 | 16 | |
| 20260830165104 | 80 | 233 | 11.0 | 12.0 | 0.00 | 0.00 | 0.00 | 17 | |
| 20260830164607 | 80 | 205 | 9.0 | 10.0 | 0.00 | 0.00 | 0.00 | 18 | |
| 20260830164109 | 79 | 239 | 14.0 | 13.0 | 0.00 | 0.00 | 0.00 | 18 | |
| 20260830163608 | 79 | 219 | 14.0 | 18.0 | 0.00 | 0.00 | 0.00 | 19 | |
| 20260830163110 | 78 | 205 | 15.0 | 12.0 | 0.00 | 0.00 | 0.00 | 20 | |
| 20260830162612 | 78 | 235 | 12.0 | 14.0 | 0.00 | 0.00 | 0.00 | 21 | |
| 20260830162115 | 77 | 228 | 14.0 | 13.0 | 0.00 | 0.00 | 0.00 | 22 | |
| 20260830161617 | 77 | 191 | 12.0 | 10.0 | 0.00 | 0.00 | 0.00 | 23 | |
| 20260830161119 | 77 | 231 | 13.0 | 16.0 | 0.00 | 0.00 | 0.00 | 24 | |
| 20260830160618 | 77 | 231 | 13.0 | 16.0 | 0.00 | 0.00 | 0.00 | 25 | |
| 20260830160121 | 76 | 233 | 14.0 | 14.0 | 0.00 | 0.00 | 0.00 | 26 | |
| 20260830155623 | 76 | 207 | 11.0 | 10.0 | 0.00 | 0.00 | 0.00 | 28 | |
| 20260830155125 | 75 | 229 | 9.0 | 12.0 | 0.00 | 0.00 | 0.00 | 28 | |
| 20260830154628 | 75 | 235 | 12.0 | 9.0 | 0.00 | 0.00 | 0.00 | 29 | |
| 20260830154130 | 74 | 218 | 9.0 | 9.0 | 0.00 | 0.00 | 0.00 | 30 | |
| 20260830153629 | 74 | 219 | 11.0 | 5.0 | 0.00 | 0.00 | 0.00 | 31 | |
| 20260830153131 | 73 | 212 | 7.0 | 14.0 | 0.00 | 0.00 | 0.00 | 32 | |
| 20260830152634 | 73 | 190 | 12.0 | 6.0 | 0.00 | 0.00 | 0.00 | 33 | |
| 20260830152136 | 72 | 177 | 10.0 | 11.0 | 0.00 | 0.00 | 0.00 | 35 | |
| 20260830151638 | 72 | 288 | 12.0 | 6.0 | 0.00 | 0.00 | 0.00 | 37 | |
| 20260830151141 | 71 | 225 | 12.0 | 9.0 | 0.00 | 0.00 | 0.00 | 38 | |
| 20260830150640 | 70 | 222 | 11.0 | 14.0 | 0.00 | 0.00 | 0.00 | 40 | |
| 20260830150142 | 69 | 211 | 10.0 | 10.0 | 0.00 | 0.00 | 0.00 | 42 | |
| 20260830145644 | 69 | 226 | 11.0 | 9.0 | 0.00 | 0.00 | 0.00 | 43 | |
| 20260830145147 | 68 | 222 | 13.0 | 14.0 | 0.00 | 0.00 | 0.00 | 44 | |
| 20260830144649 | 68 | 219 | 11.0 | 13.0 | 0.00 | 0.00 | 0.00 | 46 | |
| 20260830144151 | 68 | 194 | 9.0 | 10.0 | 0.00 | 0.00 | 0.00 | 47 | |
| 20260830143650 | 68 | 226 | 10.0 | 10.0 | 0.00 | 0.00 | 0.00 | 48 | |
| 20260830143153 | 68 | 248 | 8.0 | 8.0 | 0.00 | 0.00 | 0.00 | 49 | |
| 20260830142655 | 67 | 217 | 7.0 | 6.0 | 0.00 | 0.00 | 0.00 | 48 | |
| 20260830142157 | 67 | 217 | 5.0 | 6.0 | 0.00 | 0.00 | 0.00 | 48 | |
| 20260830141700 | 67 | 187 | 9.0 | 9.0 | 0.00 | 0.00 | 0.00 | 49 | |
| 20260830141202 | 67 | 211 | 9.0 | 7.0 | 0.00 | 0.00 | 0.00 | 49 | |
| 20260830140701 | 67 | 235 | 5.0 | 6.0 | 0.00 | 0.00 | 0.00 | 49 | |
| 20260830140203 | 67 | 212 | 9.0 | 8.0 | 0.00 | 0.00 | 0.00 | 49 | |
| 20260830135706 | 67 | 214 | 9.0 | 8.0 | 0.00 | 0.00 | 0.00 | 49 | |
| 20260830135208 | 67 | 200 | 8.0 | 10.0 | 0.00 | 0.00 | 0.00 | 49 | |
| 20260830134711 | 0 | 221 | 8.0 | 11.0 | 0.00 | 0.00 | 0.00 | 49 | |
| 20260830134213 | 66 | 235 | 8.0 | 7.0 | 0.00 | 0.00 | 0.00 | 49 | |
| 20260830133712 | 66 | 210 | 5.0 | 9.0 | 0.00 | 0.00 | 0.00 | 50 | |
| 20260830133214 | 66 | 214 | 7.0 | 9.0 | 0.00 | 0.00 | 0.00 | 50 | |
| 20260830132716 | 66 | 239 | 7.0 | 6.0 | 0.00 | 0.00 | 0.00 | 49 | |
| 20260830132219 | 66 | 218 | 8.0 | 7.0 | 0.00 | 0.00 | 0.00 | 49 | |
| 20260830131721 | 66 | 222 | 8.0 | 8.0 | 0.00 | 0.00 | 0.00 | 48 | |
| 20260830131223 | 66 | 229 | 9.0 | 8.0 | 0.00 | 0.00 | 0.00 | 48 | |
| 20260830130723 | 66 | 215 | 9.0 | 8.0 | 0.00 | 0.00 | 0.00 | 48 | |
| 20260830130226 | 66 | 228 | 7.0 | 10.0 | 0.00 | 0.00 | 0.00 | 48 | |
| 20260830125229 | 66 | 229 | 9.0 | 9.0 | 0.00 | 0.00 | 0.00 | 47 | |
| 20260830124732 | 66 | 226 | 9.0 | 12.0 | 0.00 | 0.00 | 0.00 | 47 | |
| 20260830124235 | 66 | 217 | 8.0 | 7.0 | 0.00 | 0.00 | 0.00 | 47 | |
| 20260830123733 | 66 | 219 | 8.0 | 6.0 | 0.00 | 0.00 | 0.00 | 47 | |
| 20260830123236 | 66 | 226 | 7.0 | 7.0 | 0.00 | 0.00 | 0.00 | 46 | |
| 20260830122738 | 66 | 218 | 7.0 | 8.0 | 0.00 | 0.00 | 0.00 | 46 | |
| 20260830122240 | 66 | 221 | 5.0 | 5.0 | 0.00 | 0.00 | 0.00 | 46 | |
| 20260830121742 | 66 | 226 | 6.0 | 8.0 | 0.00 | 0.00 | 0.00 | 46 | |
| 20260830121245 | 66 | 233 | 6.0 | 6.0 | 0.00 | 0.00 | 0.00 | 46 | |
| 20260830120744 | 66 | 224 | 7.0 | 8.0 | 0.00 | 0.00 | 0.00 | 47 | |
| 20260830120246 | 66 | 232 | 7.0 | 8.0 | 0.00 | 0.00 | 0.00 | 47 | |
| 20260830115748 | 66 | 236 | 7.0 | 8.0 | 0.00 | 0.00 | 0.00 | 46 | |
| 20260830115251 | 66 | 225 | 6.0 | 6.0 | 0.00 | 0.00 | 0.00 | 45 | |
| 20260830114753 | 66 | 240 | 6.0 | 6.0 | 0.00 | 0.00 | 0.00 | 45 | |
| 20260830114255 | 66 | 240 | 7.0 | 7.0 | 0.00 | 0.00 | 0.00 | 45 | |
| 20260830113755 | 67 | 243 | 5.0 | 5.0 | 0.00 | 0.00 | 0.00 | 44 | |
| 20260830113258 | 67 | 238 | 8.0 | 8.0 | 0.00 | 0.00 | 0.00 | 44 | |
| 20260830112800 | 67 | 217 | 7.0 | 7.0 | 0.00 | 0.00 | 0.00 | 43 | |
| 20260830112301 | 67 | 233 | 5.0 | 5.0 | 0.00 | 0.00 | 0.00 | 43 | |
| 20260830111804 | 67 | 235 | 3.0 | 3.0 | 0.00 | 0.00 | 0.00 | 43 | |
| 20260830111306 | 67 | 256 | 6.0 | 5.0 | 0.00 | 0.00 | 0.00 | 43 | |
| 20260830110805 | 67 | 242 | 5.0 | 6.0 | 0.00 | 0.00 | 0.00 | 43 | |
| 20260830110308 | 67 | 239 | 5.0 | 5.0 | 0.00 | 0.00 | 0.00 | 43 | |
| 20260830105810 | 67 | 260 | 6.0 | 6.0 | 0.00 | 0.00 | 0.00 | 43 | |
| 20260830105312 | 67 | 233 | 6.0 | 7.0 | 0.00 | 0.00 | 0.00 | 43 | |
| 20260830104814 | 67 | 203 | 5.0 | 2.0 | 0.00 | 0.00 | 0.00 | 43 | |
| 20260830104317 | 67 | 235 | 4.0 | 6.0 | 0.00 | 0.00 | 0.00 | 43 | |
| 20260830103816 | 67 | 240 | 6.0 | 8.0 | 0.00 | 0.00 | 0.00 | 43 | |
| 20260830103318 | 67 | 242 | 6.0 | 6.0 | 0.00 | 0.00 | 0.00 | 43 | |
| 20260830102820 | 67 | 239 | 6.0 | 6.0 | 0.00 | 0.00 | 0.00 | 44 | |
| 20260830102323 | 67 | 260 | 6.0 | 6.0 | 0.00 | 0.00 | 0.00 | 44 | |
| 20260830101825 | 68 | 243 | 4.0 | 5.0 | 0.00 | 0.00 | 0.00 | 44 | |
| 20260830101327 | 68 | 233 | 7.0 | 7.0 | 0.00 | 0.00 | 0.00 | 44 | |
| 20260830100826 | 68 | 239 | 6.0 | 7.0 | 0.00 | 0.00 | 0.00 | 45 | |
| 20260830100405 | 68 | 232 | 7.0 | 7.0 | 0.00 | 0.00 | 0.00 | 45 | |
| 20260830100329 | 68 | 232 | 7.0 | 7.0 | 0.00 | 0.00 | 0.00 | 45 | |
| 20260830095831 | 68 | 262 | 7.0 | 8.0 | 0.00 | 0.00 | 0.00 | 46 | |
| 20260830095333 | 68 | 233 | 8.0 | 10.0 | 0.00 | 0.00 | 0.00 | 46 | |
| 20260830094836 | 68 | 233 | 8.0 | 6.0 | 0.00 | 0.00 | 0.00 | 47 | |
| 20260830094338 | 68 | 235 | 8.0 | 7.0 | 0.00 | 0.00 | 0.00 | 47 | |
| 20260830093837 | 68 | 224 | 7.0 | 6.0 | 0.00 | 0.00 | 0.00 | 46 | |
| 20260830093339 | 68 | 242 | 7.0 | 6.0 | 0.00 | 0.00 | 0.00 | 44 | |
| 20260830092842 | 68 | 233 | 6.0 | 7.0 | 0.00 | 0.00 | 0.00 | 44 | |
| 20260830092345 | 69 | 239 | 0.0 | 6.0 | 0.00 | 0.00 | 0.00 | 43 | |
| 20260830091846 | 69 | 242 | 7.0 | 6.0 | 0.00 | 0.00 | 0.00 | 42 | |
| 20260830091348 | 69 | 250 | 6.0 | 8.0 | 0.00 | 0.00 | 0.00 | 41 | |
| 20260830090350 | 69 | 248 | 9.0 | 7.0 | 0.00 | 0.00 | 0.00 | 42 | |
| 20260830085852 | 69 | 219 | 11.0 | 13.0 | 0.00 | 0.00 | 0.00 | 42 | |
| 20260830085354 | 69 | 217 | 14.0 | 11.0 | 0.00 | 0.00 | 0.00 | 42 | |
| 20260830084857 | 69 | 239 | 9.0 | 10.0 | 0.00 | 0.00 | 0.00 | 42 | |
| 20260830084359 | 69 | 246 | 10.0 | 10.0 | 0.00 | 0.00 | 0.00 | 43 | |
| 20260830083858 | 69 | 266 | 10.0 | 10.0 | 0.00 | 0.00 | 0.00 | 45 | |
| 20260830083400 | 69 | 243 | 9.0 | 9.0 | 0.00 | 0.00 | 0.00 | 45 | |
| 20260830082904 | 69 | 246 | 7.0 | 7.0 | 0.00 | 0.00 | 0.00 | 46 | |
| 20260830082405 | 68 | 273 | 7.0 | 8.0 | 0.00 | 0.00 | 0.00 | 47 | |
| 20260830081907 | 68 | 246 | 6.0 | 9.0 | 0.00 | 0.00 | 0.00 | 48 | |
| 20260830081410 | 68 | 239 | 6.0 | 5.0 | 0.00 | 0.00 | 0.00 | 47 | |
| 20260830080909 | 68 | 267 | 0.0 | 0.0 | 0.00 | 0.00 | 0.00 | 47 | |
| 20260830080411 | 68 | 267 | 0.0 | 0.0 | 0.00 | 0.00 | 0.00 | 47 | |
| 20260830075913 | 68 | 267 | 0.0 | 0.0 | 0.00 | 0.00 | 0.00 | 48 | |
| 20260830075416 | 68 | 300 | 0.0 | 0.0 | 0.00 | 0.00 | 0.00 | 47 | |
| 20260830074918 | 68 | 300 | 0.0 | 0.0 | 0.00 | 0.00 | 0.00 | 47 | |
| 20260830074420 | 68 | 278 | 3.0 | 3.0 | 0.00 | 0.00 | 0.00 | 48 | |
| 20260830073919 | 68 | 226 | 0.0 | 0.0 | 0.00 | 0.00 | 0.00 | 48 | |
| 20260830073610 | 68 | 226 | 0.0 | 0.0 | 0.00 | 0.00 | 0.00 | 48 | |
| 20260830073422 | 68 | 226 | 0.0 | 0.0 | 0.00 | 0.00 | 0.00 | 48 | |
| 20260830072924 | 69 | 226 | 1.0 | 0.0 | 0.00 | 0.00 | 0.00 | 48 | |
| 20260830072426 | 69 | 253 | 0.0 | 0.0 | 0.00 | 0.00 | 0.00 | 47 | |
| 20260830071928 | 69 | 253 | 0.0 | 0.0 | 0.00 | 0.00 | 0.00 | 47 | |
| 20260830071431 | 69 | 253 | 0.0 | 0.0 | 0.00 | 0.00 | 0.00 | 46 | |
| 20260830070930 | 69 | 257 | 0.0 | 0.0 | 0.00 | 0.00 | 0.00 | 46 | |
| 20260830070432 | 69 | 201 | 7.0 | 0.0 | 0.00 | 0.00 | 0.00 | 47 | |
| 20260830070018 | 69 | 204 | 10.0 | 9.0 | 0.00 | 0.00 | 0.00 | 47 | |
| 20260830065934 | 69 | 204 | 10.0 | 9.0 | 0.00 | 0.00 | 0.00 | 47 | |
| 20260830065437 | 69 | 191 | 7.0 | 9.0 | 0.00 | 0.00 | 0.00 | 46 | |
| 20260830064939 | 69 | 207 | 6.0 | 7.0 | 0.00 | 0.00 | 0.00 | 46 | |
| 20260830064441 | 69 | 225 | 6.0 | 5.0 | 0.00 | 0.00 | 0.00 | 46 |